Location: Cabrera Baja
(40.4089°N, 4.3354°W)
Time: 03:19:19
(UTC+00:00)

Helios 1B rocket - Pass Details

Date: 14 July 2020
Orbit: 574 x 584 km, 98.1° (Epoch: 03 August)

Event Time Altitude Azimuth Distance (km) Brightness Sun altitude
Rises 00:27:59 0° 18° (NNE) 2,802 7.0 -27.9°
Reaches altitude 10° 00:30:13 10° 25° (NNE) 1,897 5.9 -27.9°
Enters shadow 00:32:50 34° 49° (NE) 967 3.8 -27.9°
